Flag for Micronesia Weather past 2 weeks in Kolonia, Pohnpei, Micronesia

Now
82 °F

Mostly cloudy.


Feels Like: 93 °F
Forecast: 79 / 85 °F
Wind: 3 mph from Southwest

Location: Pohnpei

Current Time: Jul 31, 2015 at 7:30:35 AM

Latest Report: Jul 31, 2015 at 6:50 AM


Visibility: 15 mi

Pressure: 29.75 "Hg

Humidity: 90%

Dew point: 79 °F

Location of KoloniaLocation

Historic Weather in Kolonia — Graph

°F

Kolonia temperature yesterday

Maximum temperature yesterday: 87 °F (at 1:52 PM)
Minimum temperature yesterday: 79 °F (at 12:52 AM)
Average temperature yesterday: 82 °F

Past Weeks' High & Low Weather Summary

 TemperatureHumidityPressure
High90 °F (Jul 16, 11:52 AM)99% (Jul 17, 7:50 AM)29.96 "Hg (Jul 17, 7:50 AM)
Low75 °F (Jul 25, 2:56 AM)64% (Jul 16, 12:52 PM)29.71 "Hg (Jul 31, 4:54 AM)
Average81 °F87%29.86 "Hg
* Reported Jul 16 6:50 AM — Jul 31 5:52 AM, Kolonia, Weather by CustomWeather, © 2015

Note: Actual official high and low records may vary slightly from our data, if they occured in-between our weather recording intervals... More about our weather records

Advertising

Kolonia weather history for previous 24 hours

 ConditionsComfort  
Time TempWeatherWind HumidityBarometerVisibility
5:52 AM
Fri, Jul 31
82 °FMostly cloudy.3 mph90%29.72 "Hg15 mi
4:54 AM81 °FMostly cloudy.3 mph88%29.71 "Hg15 mi
3:50 AM82 °FMostly cloudy.3 mph90%29.72 "Hg15 mi
2:53 AM81 °FMostly cloudy.3 mph94%29.73 "Hg15 mi
1:51 AM81 °FMostly cloudy.3 mph93%29.75 "Hg15 mi
12:52 AM81 °FMostly cloudy.3 mph93%29.77 "Hg15 mi
11:50 PM
Thu, Jul 30
82 °FMostly cloudy.3 mph88%29.80 "Hg15 mi
10:52 PM82 °FOvercast.3 mph84%29.80 "Hg15 mi
9:52 PM82 °FMostly cloudy.3 mph86%29.80 "Hg15 mi
8:52 PM83 °FOvercast.3 mph86%29.79 "Hg15 mi
7:55 PM81 °FOvercast.3 mph90%29.78 "Hg15 mi
6:52 PM80 °FOvercast.3 mph94%29.75 "Hg15 mi
5:54 PM83 °FCloudy.3 mph83%29.74 "Hg15 mi
4:55 PM82 °FCloudy.6 mph81%29.74 "Hg15 mi
3:52 PM85 °FCloudy.3 mph81%29.73 "Hg15 mi
2:54 PM85 °FCloudy.6 mph81%29.74 "Hg15 mi
1:52 PM87 °FCloudy.3 mph73%29.75 "Hg15 mi
12:53 PM86 °FMostly cloudy.5 mph80%29.77 "Hg15 mi
11:54 AM83 °FSprinkles. Mostly cloudy.7 mph88%29.78 "Hg12 mi
10:51 AM84 °FMore clouds than sun.3 mph84%29.80 "Hg15 mi
9:53 AM86 °FCloudy.5 mph80%29.80 "Hg15 mi
8:53 AM85 °FCloudy.3 mph81%29.80 "Hg15 mi
7:54 AM80 °FMostly cloudy.3 mph93%29.80 "Hg15 mi
Weather by CustomWeather, © 2015

See weather overviewHow to use our weather pages